Nogales, AZ

5:01 PM MST on October 22, 2019 (GMT -0700)
Nogales International

Weather History for KOLS - August, 2019

Change the Weather History Date:

Sunday, August 25, 2019

  Actual Average (WUND) Record (WUND)
Temperature  
Mean Temperature 78 °F -  
Max Temperature 90 °F - - (-1)
Min Temperature 66 °F - - (-1)
Cooling Degree Days 13    
Growing Degree Days 28 (Base 50)    
Moisture  
Dew Point 65 °F    
Average Humidity 69    
Maximum Humidity 93    
Minimum Humidity 39    
Precipitation  
Precipitation 0.00 in - - ()
Sea Level Pressure  
Sea Level Pressure 29.94 in    
Wind  
Wind Speed 2 mph ()    
Max Wind Speed 8 mph    
Max Gust Speed -    
Visibility 10.0 miles    
Events      
Averages and records for this station are not official NWS values.
T = Trace of Precipitation, MM = Missing Value Source: Averaged Metar Reports

Daily Weather History Graph

Daily Weather History Graph

Search for Another Location

Airport or City:

Astronomy

Aug. 25, 2019 Rise Set
Actual Time 5:54 AM MST 6:55 PM MST
Civil Twilight 5:29 AM MST 7:20 PM MST
Nautical Twilight 5:00 AM MST 7:50 PM MST
Astronomical Twilight 4:29 AM MST 8:20 PM MST
Moon 12:43 AM MST (8/25) 3:07 PM MST (8/25)
Length of Visible Light 13h 50m
Length of Day
13h 00m
Waning Crescent, 28% of the Moon is Illuminated
Aug 25
Waning Crescent
Aug 30
New
Sep 5
First Quarter
Sep 13
Full
Sep 21
Last Quarter

Hourly Weather History & Observations

Time (MST) Temp. Heat Index Dew Point Humidity Pressure Visibility Wind Dir Wind Speed Gust Speed Precip Events Conditions
12:54 AM 69.1 °F - 66.0 °F 90% 29.95 in 10.0 mi Calm Calm - N/A   Clear
1:54 AM 68.0 °F - 64.9 °F 90% 29.94 in 10.0 mi Calm Calm - N/A   Clear
2:54 AM 66.9 °F - 64.9 °F 93% 29.94 in 10.0 mi Calm Calm - N/A   Clear
3:54 AM 66.9 °F - 64.9 °F 93% 29.96 in 10.0 mi Calm Calm - N/A   Clear
4:10 AM 66.9 °F - 64.9 °F 93% 30.16 in 10.0 mi Calm Calm - N/A   Partly Cloudy
4:34 AM 66.9 °F - 64.0 °F 90% 30.16 in 10.0 mi Calm Calm - N/A   Mostly Cloudy
4:54 AM 66.9 °F - 64.0 °F 90% 29.98 in 10.0 mi Calm Calm - N/A   Partly Cloudy
5:54 AM 66.9 °F - 64.0 °F 90% 29.99 in 10.0 mi SE 4.6 mph - N/A   Clear
6:54 AM 68.0 °F - 64.9 °F 90% 30.00 in 10.0 mi Calm Calm - N/A   Clear
7:54 AM 72.0 °F - 66.0 °F 81% 30.01 in 10.0 mi Calm Calm - N/A   Clear
8:54 AM 75.0 °F - 66.0 °F 73% 30.00 in 10.0 mi Variable 3.5 mph - N/A   Clear
9:54 AM 75.9 °F - 64.9 °F 69% 29.99 in 10.0 mi Calm Calm - N/A   Partly Cloudy
10:54 AM 82.0 °F 84.1 °F 66.0 °F 58% 29.97 in 10.0 mi West 5.8 mph - N/A   Scattered Clouds
11:54 AM 84.0 °F 86.3 °F 66.0 °F 55% 29.96 in 10.0 mi West 6.9 mph - N/A   Partly Cloudy
12:54 PM 86.0 °F 88.2 °F 66.0 °F 51% 29.93 in 10.0 mi Variable 3.5 mph - N/A   Partly Cloudy
1:54 PM 87.1 °F 89.2 °F 66.0 °F 49% 29.91 in 10.0 mi West 8.1 mph - N/A   Mostly Cloudy
2:54 PM 88.0 °F 89.3 °F 64.0 °F 45% 29.89 in 10.0 mi Variable 4.6 mph - N/A   Clear
3:54 PM 90.0 °F 90.3 °F 62.1 °F 39% 29.86 in 10.0 mi NNW 5.8 mph - N/A   Clear
4:54 PM 89.1 °F 89.0 °F 61.0 °F 39% 29.85 in 10.0 mi Variable 6.9 mph - N/A   Clear
5:54 PM 88.0 °F 88.4 °F 62.1 °F 42% 29.84 in 10.0 mi WNW 4.6 mph - N/A   Clear
6:54 PM 84.0 °F 84.9 °F 63.0 °F 49% 29.86 in 10.0 mi NW 3.5 mph - N/A   Clear
7:54 PM 82.0 °F 83.4 °F 64.0 °F 54% 29.87 in 10.0 mi Calm Calm - N/A   Mostly Cloudy
8:54 PM 77.0 °F - 66.0 °F 69% 29.88 in 10.0 mi Calm Calm - N/A   Clear
9:54 PM 75.9 °F - 66.0 °F 71% 29.88 in 10.0 mi SSE 3.5 mph - N/A   Clear
10:54 PM 75.0 °F - 64.9 °F 71% 29.87 in 10.0 mi SE 3.5 mph - N/A   Clear
11:54 PM 73.9 °F - 64.9 °F 73% 29.87 in 10.0 mi ESE 3.5 mph - N/A   Clear